DW7859 Edgewater MD US current weather conditions

sailwx.info

Wind from 229

Air temperature 15.6° C
Dewpoint 4.9° C

Last reported at 2020-Jun-02 05:03 UTC.
Time now 2020-Jun-02 05:50 UTC

Location: N 38°55' W 076°34'.
View on Google Maps.

See reports from other nearby stations

  
Tides and Currents Weather Stations Pressure Air Temp Water Temp Dewpoint Dewpoint Depression Visibility Wind Speed Wind Dir Waves Ship Positions
date/time (UTC)wind fromknots sea level pressurealtimeterstation pressurevisibilityair tempwater tempwave heightnotes
2020-Jun-02 05:03 229 15.6
2020-Jun-02 04:53 229 15.6
2020-Jun-02 04:43 229 15.6
2020-Jun-02 04:33 229 15.6
2020-Jun-02 04:23 229 16.1
2020-Jun-02 04:13 229 16.1
2020-Jun-02 04:03 229 16.7
2020-Jun-02 03:53 229 16.7
2020-Jun-02 03:43 229 16.7
2020-Jun-02 03:33 229 17.2
2020-Jun-02 03:23 229 17.2
2020-Jun-02 03:13 229 16.7
2020-Jun-02 03:03 229 16.7
2020-Jun-02 02:53 229 16.7
2020-Jun-02 02:43 229 16.7
2020-Jun-02 02:33 229 16.7
2020-Jun-02 02:23 229 16.1
2020-Jun-02 02:13 229 16.1
2020-Jun-02 02:03 229 16.1
2020-Jun-02 01:53 229 16.1
2020-Jun-02 01:43 229 16.7
2020-Jun-02 01:33 229 16.7
2020-Jun-02 01:23 229 16.7
2020-Jun-02 01:13 229 17.2
2020-Jun-02 01:03 229 17.2
2020-Jun-02 00:53 229 17.2
2020-Jun-02 00:43 229 17.8
2020-Jun-02 00:33 229 17.8
2020-Jun-02 00:23 229 18.3
2020-Jun-02 00:13 229 18.9
2020-Jun-01 23:51 229 0 gusting 2 19.4
2020-Jun-01 23:41 233 0 gusting 1 19.4
2020-Jun-01 23:31 233 0 gusting 1 20.0
2020-Jun-01 23:21 233 0 gusting 1 20.0
2020-Jun-01 23:11 233 0 gusting 1 20.6
2020-Jun-01 23:01 300 0 gusting 1 21.1
2020-Jun-01 22:51 300 0 gusting 0 21.1
2020-Jun-01 22:41 300 21.1
2020-Jun-01 22:31 300 0 gusting 2 21.7
2020-Jun-01 22:21 300 0 gusting 2 21.7
2020-Jun-01 22:11 300 1 gusting 2 22.2
2020-Jun-01 22:01 300 0 gusting 2 21.7
2020-Jun-01 21:51 300 0 gusting 2 21.7
2020-Jun-01 21:41 300 1 gusting 2 21.7
2020-Jun-01 21:31 302 0 gusting 2 21.7
2020-Jun-01 21:21 266 0 gusting 3 21.7
2020-Jun-01 21:11 266 1 gusting 3 21.7
2020-Jun-01 21:01 248 0 gusting 2 21.7
2020-Jun-01 20:51 248 0 gusting 2 21.7
2020-Jun-01 20:41 223 1 gusting 3 21.7
2020-Jun-01 20:31 273 2 gusting 3 21.7
2020-Jun-01 20:21 259 0 gusting 3 21.7
2020-Jun-01 20:11 257 0 gusting 3 21.1
2020-Jun-01 20:01 268 1 gusting 3 21.7
2020-Jun-01 19:51 267 2 gusting 3 21.7
2020-Jun-01 19:41 297 1 gusting 3 21.1
2020-Jun-01 19:31 030 0 gusting 2 21.1
2020-Jun-01 19:21 348 0 gusting 2 21.1
2020-Jun-01 19:11 335 0 gusting 2 20.6
2020-Jun-01 19:01 315 0 gusting 4 21.7
2020-Jun-01 18:51 300 1 gusting 4 21.1
2020-Jun-01 18:41 261 0 gusting 4 20.6
2020-Jun-01 18:20 262 0 gusting 2 20.6
2020-Jun-01 18:10 289 1 gusting 3 20.0
2020-Jun-01 18:00 290 0 gusting 3 20.6
2020-Jun-01 17:50 355 0 gusting 2 20.6
2020-Jun-01 17:40 355 1 gusting 2 20.6
2020-Jun-01 17:30 213 1 gusting 3 20.6
2020-Jun-01 17:20 149 1 gusting 3 20.0
2020-Jun-01 17:10 261 20.6
2020-Jun-01 17:00 256 0 gusting 3 20.0
2020-Jun-01 16:50 250 2 gusting 3 20.0
2020-Jun-01 16:40 350 0 gusting 3 20.0
2020-Jun-01 16:30 261 0 gusting 2 19.4
2020-Jun-01 16:20 005 0 gusting 2 20.0
2020-Jun-01 16:10 240 0 gusting 1 20.0
2020-Jun-01 15:59 065 0 gusting 1 20.0
2020-Jun-01 15:49 175 0 gusting 3 19.4
2020-Jun-01 15:39 182 0 gusting 3 19.4
2020-Jun-01 15:29 355 0 gusting 4 18.9
2020-Jun-01 15:19 300 1 gusting 4 18.9
2020-Jun-01 15:09 122 0 gusting 2 18.9
2020-Jun-01 14:59 180 0 gusting 1 17.8
2020-Jun-01 14:49 180 0 gusting 1 18.3
2020-Jun-01 14:39 180 0 gusting 2 17.2
2020-Jun-01 14:29 180 0 gusting 2 17.2
2020-Jun-01 13:39 157 0 gusting 3 16.7
2020-Jun-01 13:29 122 1 gusting 3 16.7
2020-Jun-01 13:19 134 1 gusting 3 16.7
2020-Jun-01 13:09 158 1 gusting 2 16.7
2020-Jun-01 12:59 207 0 gusting 1 16.1
2020-Jun-01 12:49 234 0 gusting 1 15.6
2020-Jun-01 12:39 234 15.6
2020-Jun-01 12:29 234 15.6
2020-Jun-01 12:19 234 15.0
2020-Jun-01 12:09 234 14.4
2020-Jun-01 11:59 234 13.9
2020-Jun-01 11:49 234 13.9
2020-Jun-01 11:39 234 13.3
2020-Jun-01 11:29 234 12.8
2020-Jun-01 11:19 234 12.2
2020-Jun-01 11:09 234 11.7
2020-Jun-01 10:59 234 11.7
2020-Jun-01 10:49 234 11.1
2020-Jun-01 10:39 234 10.6
2020-Jun-01 10:29 234 10.0
2020-Jun-01 10:19 234 10.6
2020-Jun-01 10:09 234 10.6
2020-Jun-01 09:59 234 10.6
2020-Jun-01 09:49 234 10.6
2020-Jun-01 09:39 234 10.6
2020-Jun-01 09:29 234 10.6
2020-Jun-01 09:19 234 11.1
2020-Jun-01 09:09 234 11.1
2020-Jun-01 08:59 234 11.1
2020-Jun-01 08:49 234 11.1
2020-Jun-01 08:39 234 11.7
2020-Jun-01 08:29 234 11.7
2020-Jun-01 08:19 234 11.7
2020-Jun-01 08:09 234 12.2
2020-Jun-01 07:59 234 12.2
2020-Jun-01 07:49 234 11.7
2020-Jun-01 07:39 234 11.7
2020-Jun-01 07:29 234 12.2
2020-Jun-01 07:19 234 12.2
2020-Jun-01 07:09 234 12.2
2020-Jun-01 06:59 234 12.2
2020-Jun-01 06:49 234 12.2
2020-Jun-01 06:39 234 12.2
2020-Jun-01 06:29 234 12.8
2020-Jun-01 06:19 234 12.8
2020-Jun-01 06:09 234 12.8
2020-Jun-01 05:59 234 13.3
2020-Jun-01 05:49 234 13.3
2020-Jun-01 05:39 234 13.3
2020-Jun-01 05:29 234 13.9
2020-Jun-01 05:19 234 13.9
2020-Jun-01 05:09 234 13.9
2020-Jun-01 04:59 234 14.4
2020-Jun-01 04:49 234 14.4
2020-Jun-01 04:39 234 14.4
2020-Jun-01 04:29 234 15.0
2020-Jun-01 04:19 234 15.0
2020-Jun-01 04:09 234 14.4
2020-Jun-01 03:59 234 0 gusting 0 14.4
2020-Jun-01 03:49 234 14.4
2020-Jun-01 03:39 234 14.4
2020-Jun-01 03:29 234 15.0
2020-Jun-01 03:19 234 15.0
2020-Jun-01 03:09 234 15.6
2020-Jun-01 02:59 234 0 gusting 0 15.6
2020-Jun-01 02:49 234 0 gusting 0 15.6
2020-Jun-01 02:39 234 0 gusting 0 15.6
2020-Jun-01 02:29 234 15.6
2020-Jun-01 02:19 234 16.1
2020-Jun-01 02:09 234 0 gusting 0 16.7
2020-Jun-01 01:58 234 16.7
2020-Jun-01 01:48 234 16.7
2020-Jun-01 01:38 234 17.2
2020-Jun-01 01:28 234 0 gusting 0 17.2
2020-Jun-01 01:18 234 17.8
2020-Jun-01 01:08 234 18.3
2020-Jun-01 00:58 234 0 gusting 0 18.3
2020-Jun-01 00:48 234 0 gusting 0 18.9
2020-Jun-01 00:38 234 0 gusting 0 19.4
2020-Jun-01 00:28 234 20.0
2020-Jun-01 00:18 234 0 gusting 1 20.0
2020-Jun-01 00:08 234 0 gusting 1 20.6
2020-May-31 23:58 234 0 gusting 1 20.6
2020-May-31 23:48 234 0 gusting 0 21.1
2020-May-31 23:38 234 0 gusting 0 21.1
2020-May-31 23:28 234 21.7
2020-May-31 23:18 234 0 gusting 1 21.7
2020-May-31 23:08 234 0 gusting 1 21.7
2020-May-31 22:58 234 0 gusting 2 21.7
2020-May-31 22:48 234 1 gusting 2 21.7
2020-May-31 22:38 232 0 gusting 3 22.2
2020-May-31 22:28 195 1 gusting 3 22.2
2020-May-31 22:18 298 0 gusting 2 22.2
2020-May-31 22:08 298 0 gusting 2 22.2
2020-May-31 21:58 322 1 gusting 3 22.2
2020-May-31 21:48 311 1 gusting 3 22.2
2020-May-31 21:38 248 0 gusting 3 22.2
2020-May-31 21:28 258 0 gusting 3 22.2
2020-May-31 21:18 292 0 gusting 4 22.2
2020-May-31 21:08 255 1 gusting 4 22.2
2020-May-31 20:58 302 0 gusting 2 22.2
2020-May-31 20:48 277 0 gusting 2 22.2
2020-May-31 20:38 019 1 gusting 3 21.7
2020-May-31 20:28 277 0 gusting 3 22.2
2020-May-31 20:18 267 0 gusting 5 21.7
2020-May-31 20:08 260 1 gusting 5 22.2
2020-May-31 19:58 276 0 gusting 3 21.7
2020-May-31 19:48 263 1 gusting 3 22.2
2020-May-31 19:38 246 2 gusting 4 22.2
2020-May-31 19:28 295 0 gusting 4 22.2
2020-May-31 19:18 328 0 gusting 3 21.7
2020-May-31 19:08 274 0 gusting 3 21.7
2020-May-31 18:58 265 0 gusting 3 21.1
2020-May-31 18:48 279 0 gusting 3 21.7
2020-May-31 18:38 266 1 gusting 3 21.1
2020-May-31 18:28 271 0 gusting 3 21.7
2020-May-31 18:18 281 0 gusting 2 21.7
2020-May-31 18:08 248 0 gusting 2 21.7
2020-May-31 17:58 245 0 gusting 3 21.7
2020-May-31 17:48 279 1 gusting 3 21.1
2020-May-31 17:38 263 1 gusting 3 21.7
2020-May-31 17:28 277 1 gusting 2 21.1
2020-May-31 17:18 286 0 gusting 3 21.1
2020-May-31 17:08 286 0 gusting 3 21.1
2020-May-31 16:58 261 0 gusting 3 21.1
2020-May-31 16:48 271 0 gusting 2 20.6
2020-May-31 16:38 268 0 gusting 5 20.6
2020-May-31 16:28 191 1 gusting 5 21.1
2020-May-31 16:18 207 1 gusting 3 21.1
2020-May-31 16:08 248 0 gusting 6 20.6
2020-May-31 15:58 220 1 gusting 6 21.1
2020-May-31 15:48 234 1 gusting 4 21.1
2020-May-31 15:38 289 1 gusting 5 20.0
2020-May-31 15:28 251 0 gusting 4 20.0
2020-May-31 15:18 297 0 gusting 7 20.0
2020-May-31 15:08 238 1 gusting 5 20.6
2020-May-31 14:58 243 1 gusting 5 20.6
2020-May-31 14:48 274 0 gusting 2 19.4
2020-May-31 14:38 257 0 gusting 4 19.4
2020-May-31 14:28 270 1 gusting 4 20.0
2020-May-31 14:18 309 0 gusting 6 18.9
2020-May-31 14:08 074 1 gusting 6 19.4
2020-May-31 13:58 232 1 gusting 5 18.9
2020-May-31 13:48 081 1 gusting 5 18.9
2020-May-31 13:38 224 1 gusting 4 18.9
2020-May-31 13:28 171 1 gusting 4 18.3
2020-May-31 13:18 307 0 gusting 6 18.3
2020-May-31 13:08 265 1 gusting 6 18.3
2020-May-31 12:58 232 1 gusting 2 17.8
2020-May-31 12:48 187 1 gusting 2 17.8
2020-May-31 12:38 086 0 gusting 2 17.2
2020-May-31 12:28 086 0 gusting 6 17.2
2020-May-31 12:18 148 1 gusting 6 17.2
2020-May-31 12:08 148 0 gusting 3 17.2
2020-May-31 11:58 262 0 gusting 2 16.7
2020-May-31 11:48 262 0 gusting 2 16.7
2020-May-31 11:38 267 0 gusting 2 16.1
2020-May-31 11:28 281 0 gusting 2 16.1
2020-May-31 11:18 281 15.6
2020-May-31 11:07 281 0 gusting 1 15.6
2020-May-31 10:57 281 0 gusting 1 15.6
2020-May-31 10:47 281 0 gusting 1 15.0
2020-May-31 10:37 281 0 gusting 1 15.0
2020-May-31 10:27 281 0 gusting 1 15.0
2020-May-31 10:17 281 0 gusting 1 15.0
2020-May-31 10:07 281 15.6
2020-May-31 09:57 281 0 gusting 1 15.6
2020-May-31 09:47 281 15.6
2020-May-31 09:37 281 0 gusting 1 16.1
2020-May-31 09:27 281 0 gusting 1 16.1
2020-May-31 09:17 281 0 gusting 1 16.1
2020-May-31 09:07 281 0 gusting 1 16.7
2020-May-31 08:57 281 0 gusting 2 16.7
2020-May-31 08:47 281 0 gusting 2 16.7
2020-May-31 08:37 294 0 gusting 1 17.2
2020-May-31 08:27 294 0 gusting 2 17.2
2020-May-31 08:17 294 0 gusting 2 17.2
2020-May-31 08:07 294 1 gusting 1 17.2
2020-May-31 07:57 294 0 gusting 2 17.8
2020-May-31 07:47 294 0 gusting 2 17.8
2020-May-31 07:37 288 1 gusting 2 17.8
2020-May-31 07:27 288 0 gusting 2 18.3
2020-May-31 07:17 288 0 gusting 1 18.3
2020-May-31 07:07 288 0 gusting 2 18.3
2020-May-31 06:57 288 0 gusting 2 18.9
2020-May-31 06:47 288 0 gusting 1 18.9
2020-May-31 06:37 288 0 gusting 2 19.4
2020-May-31 06:27 288 0 gusting 2 19.4
2020-May-31 06:17 286 1 gusting 3 20.0
2020-May-31 06:07 292 1 gusting 3 20.0
2020-May-31 05:57 163 20.0
2020-May-31 05:47 160 20.0
2020-May-31 05:37 160 20.0
2020-May-31 05:27 160 20.0
2020-May-31 05:17 160 20.6
2020-May-31 05:07 160 20.6